Location: Bas Lanzent
(48.1360°N, 3.5871°W)
Time: 20:28:24
(UTC+00:00)

USA 229 DEB - Pass Details

Date: 18 February 2020
Orbit: 988 x 1224 km, 63.4° (Epoch: 26 March)

Event Time Altitude Azimuth Distance (km) Brightness Sun altitude
Exits shadow 04:41:14 39° 206° (SSW) 1,721 4.4 -26.5°
Drops below altitude 10° 04:46:29 10° 172° (S) 3,149 6.1 -25.7°
Sets 04:49:23 0° 166° (SSE) 4,124 6.8 -25.2°
